Helicity
15 30 22 48 66 93 78 63 45 35 96 55 44 33 41 60 110 121 121 154 177 195 238 254 223 178 159 142 119 97 86 73 54 46 44 58 71 88 84 90 73 41 23 10
49 52 58 67 85 86 90 77 65 45 87 35 27 31 37 67 109 125 116 124 120 157 273 266 239 201 173 151 134 119 100 72 57 43 49 52 78 87 86 88 66 51 42 30
92 92 84 70 73 66 94 101 95 87 62 38 29 14 64 95 118 118 98 85 107 151 224 273 256 218 195 160 138 123 109 89 77 63 49 54 69 92 85 80 69 68 51 41
119 95 91 83 82 96 68 182 126 85 68 63 77 57 60 95 84 86 80 94 104 158 245 311 259 241 201 157 127 124 99 93 83 79 64 60 71 69 117 91 78 55 44 42
110 99 111 90 104 118 145 178 139 145 93 69 60 41 39 44 48 60 76 90 139 205 261 299 240 248 200 146 115 107 102 99 91 92 85 85 84 107 107 88 74 64 50 35
124 135 111 110 98 121 109 165 200 130 61 43 58 28 35 33 38 68 88 112 160 219 277 287 233 216 167 131 120 106 109 105 98 96 98 99 109 110 107 104 89 67 52 40
110 116 133 121 92 123 107 92 52 58 70 73 82 24 15 32 58 42 80 100 175 218 247 253 226 181 155 143 135 131 115 100 94 105 119 131 126 126 112 102 90 65 54 40
90 93 140 148 157 114 114 134 85 122 140 135 108 53 92 81 72 61 97 138 183 220 238 235 215 192 193 184 176 152 121 103 100 112 118 117 111 120 115 101 90 72 57 50
111 125 194 180 144 111 150 120 186 191 153 116 75 74 109 58 57 77 115 106 133 178 208 216 230 215 209 207 185 137 109 84 98 115 92 93 133 131 113 91 82 71 52 46
169 141 170 175 149 169 155 186 123 130 82 77 148 145 32 60 104 57 54 34 102 171 203 209 240 240 199 148 134 111 93 76 124 82 98 137 164 138 108 96 78 59 50 38
167 167 188 168 140 188 186 166 188 173 178 170 101 101 165 140 17 -32 -16 83 94 144 184 216 206 183 129 99 134 110 94 112 108 92 124 133 138 107 85 81 71 65 60 48
194 199 212 148 203 176 185 187 193 188 197 245 285 192 127 97 108 71 91 21 14 130 187 236 235 197 136 128 134 131 133 126 99 102 124 123 104 83 83 89 80 76 71 66
171 234 189 174 180 218 287 284 284 343 318 355 215 275 249 272 208 106 15 24 83 156 256 299 284 153 82 111 137 161 152 137 127 102 98 91 87 87 82 79 77 74 68 65
197 283 286 283 207 232 332 307 331 372 340 292 300 230 208 189 192 112 40 44 124 180 178 156 148 122 141 172 204 171 160 116 88 88 90 87 78 74 71 70 77 81 79 82
223 303 235 225 182 204 234 228 267 401 330 265 173 182 136 120 72 93 150 113 168 176 192 207 200 182 174 171 151 101 84 92 87 86 75 58 63 75 75 68 73 81 89 102
351 346 333 344 172 165 191 133 163 211 166 192 180 84 106 91 143 154 105 190 205 229 247 188 161 170 155 157 134 113 68 45 51 63 69 83 93 101 100 98 102 109 115 119
393 362 324 355 298 231 310 182 98 180 221 179 230 195 199 165 185 145 192 152 138 169 176 200 191 127 132 110 45 31 32 51 65 82 89 98 106 108 107 109 112 117 110 112
338 323 306 310 238 296 219 205 244 183 221 203 232 186 160 151 132 111 69 80 138 177 167 169 108 99 48 22 37 49 62 81 97 103 102 109 114 115 105 83 97 92 105 121
197 269 261 292 231 204 164 167 177 180 210 139 174 194 227 208 118 53 168 169 190 184 131 83 55 35 39 54 64 73 90 90 90 87 100 109 114 116 103 99 102 103 121 142
194 192 281 343 277 244 312 192 147 140 233 191 185 181 59 12 -19 48 206 175 136 85 49 34 40 60 77 66 82 84 81 91 84 97 118 135 137 115 97 93 111 135 124 125
248 278 251 231 351 340 201 160 120 245 214 108 53 -0 49 110 221 249 163 138 92 42 33 52 75 87 92 84 76 77 90 88 99 117 131 143 127 103 114 122 146 124 133 125
299 266 241 273 319 314 127 74 110 104 58 44 28 78 143 168 136 124 62 16 21 45 75 74 72 76 86 77 82 94 97 97 106 130 149 146 120 128 139 126 115 117 108 108
246 160 203 201 235 159 29 8 86 24 93 66 109 161 195 128 71 -3 -0 19 47 58 66 75 78 75 88 49 69 91 95 109 128 140 132 126 121 124 117 108 106 117 96 111
158 184 209 190 129 136 100 121 81 72 45 69 169 105 11 -9 -56 -16 18 57 59 54 57 60 66 59 73 74 82 108 115 105 128 126 118 119 120 103 96 110 115 106 95 98
82 150 105 89 71 97 97 32 54 86 67 67 52 26 -4 -4 8 49 86 91 63 66 76 79 90 97 93 84 102 128 123 142 139 134 126 116 113 94 96 95 97 92 75 72
142 138 161 199 72 42 88 129 39 41 59 41 28 17 30 59 57 77 90 93 98 84 94 103 94 94 90 107 126 120 149 140 128 123 114 108 100 90 83 77 67 33 33 26
Wind_Speed
47 50 57 52 51 45 47 53 55 48 45 56 52 52 53 36 29 27 25 24 24 22 16 13 11 10 13 19 25 33 41 46 47 48 49 49 48 45 44 45 46 47 48 52
43 50 49 46 49 50 53 58 56 44 46 65 65 84 85 48 35 31 28 27 25 23 20 17 13 12 14 18 25 33 41 45 47 49 49 49 50 49 48 47 48 49 50 53
44 46 44 48 52 62 60 58 59 59 68 49 66 55 41 33 30 34 32 23 18 18 20 17 14 12 13 17 24 34 42 46 48 50 49 49 49 49 48 46 50 53 55 57
43 44 46 48 54 61 74 57 59 68 70 61 58 53 46 37 35 36 31 16 10 10 13 13 12 12 13 19 25 35 43 46 50 53 53 52 55 57 54 53 53 56 58 61
44 47 48 49 56 56 65 61 63 58 56 53 43 45 41 38 34 32 28 15 11 9 11 13 11 12 16 21 29 37 43 48 52 55 55 56 58 57 55 55 57 58 59 63
44 42 44 47 52 50 61 67 60 49 43 48 41 48 45 42 40 32 27 18 13 12 13 12 12 17 21 26 32 38 46 52 55 57 57 57 58 58 59 60 62 63 63 62
52 43 44 47 58 52 70 73 75 60 52 47 41 54 42 43 43 39 25 19 18 15 13 15 19 20 24 29 35 43 50 56 57 59 59 58 58 58 60 62 63 65 65 64
56 59 48 53 53 63 68 67 63 66 61 58 52 39 42 46 46 37 25 22 21 19 19 20 23 24 29 33 41 49 56 59 60 62 61 58 57 58 60 61 62 63 64 64
58 56 49 52 46 58 63 64 54 56 52 53 41 43 43 48 41 32 27 25 23 24 25 26 29 30 35 41 48 54 59 61 61 62 61 59 58 61 64 63 63 63 63 63
51 68 53 47 50 53 53 48 63 55 64 65 52 57 49 54 47 35 31 29 29 30 32 34 37 40 42 46 52 57 60 62 62 62 63 61 62 65 64 63 64 63 65 66
50 53 55 55 55 60 54 54 49 52 54 62 72 57 47 55 57 47 38 32 34 37 37 37 40 44 48 51 56 60 61 62 64 64 64 63 67 67 64 63 64 65 67 67
47 52 64 65 54 48 48 49 47 64 65 54 68 76 51 49 48 40 37 41 45 45 45 45 47 54 59 60 59 62 62 64 64 64 66 65 66 65 65 65 66 66 69 68
45 55 79 68 57 53 54 51 51 54 57 60 70 65 45 46 49 55 66 63 56 55 50 53 62 66 65 61 63 65 64 65 65 64 65 66 68 69 71 70 70 71 73 73
46 52 52 69 73 71 68 61 54 53 67 72 60 74 66 73 74 71 71 72 69 63 58 61 63 61 58 61 65 67 68 66 66 67 71 74 75 75 76 77 76 76 74 77
50 68 62 62 65 71 73 70 60 60 63 72 75 79 78 78 78 78 66 62 62 59 55 53 55 59 64 66 67 67 68 69 72 75 78 80 81 81 82 83 82 81 80 79
54 75 74 85 76 73 77 65 67 63 62 65 72 76 74 69 57 67 68 66 66 62 62 60 59 64 67 69 71 73 75 75 76 80 84 86 87 88 88 87 85 83 82 81
61 69 82 94 77 80 88 72 54 59 55 60 73 72 65 66 71 70 71 68 66 63 61 62 65 67 70 71 73 78 81 83 85 88 90 90 88 89 88 87 86 84 83 80
62 66 70 92 83 95 68 51 62 65 67 61 69 71 66 70 72 72 65 67 67 67 66 67 68 71 73 76 81 84 85 87 90 90 90 88 88 89 88 86 85 84 81 80
47 61 74 80 85 90 86 66 66 69 80 72 75 67 63 72 77 72 59 56 59 62 66 68 71 76 81 85 87 88 89 88 89 90 90 89 86 88 89 89 87 84 80 77
49 48 61 74 91 102 82 74 63 66 91 63 54 70 83 84 99 75 63 62 63 63 66 73 78 81 83 83 85 88 90 90 91 90 90 88 85 86 87 86 85 81 74 73
67 66 75 81 92 86 71 63 62 84 79 68 81 90 94 91 70 59 59 61 62 69 76 79 83 88 90 88 87 91 89 89 89 89 88 86 82 83 82 83 80 73 68 65
73 75 81 78 85 92 53 69 82 81 84 82 86 80 65 58 56 58 62 67 73 80 82 85 90 94 92 87 87 90 91 88 88 89 86 83 80 79 77 76 70 64 59 60
86 67 81 72 85 70 71 73 76 71 83 83 71 60 58 58 59 61 67 70 78 85 89 87 91 95 94 88 84 93 89 89 88 87 84 80 76 75 72 67 63 59 55 56
73 63 77 80 66 79 75 73 73 75 70 60 59 59 58 62 67 73 75 77 85 91 92 91 98 100 99 91 89 85 88 87 84 86 81 76 73 71 63 56 53 52 50 51
73 67 74 79 71 70 63 63 67 67 61 60 61 61 62 68 74 76 77 84 92 95 97 95 95 95 95 91 90 89 85 83 83 79 76 71 66 61 57 51 48 46 44 41
53 54 65 68 64 56 57 62 63 66 70 71 71 72 68 70 76 77 83 86 91 93 93 96 92 90 89 89 88 81 75 73 73 73 69 62 59 56 54 53 54 46 34 26
Wind_Direction
7 8 5 12 12 10 1 350 341 342 344 332 325 314 308 303 292 278 262 256 260 255 243 253 265 290 315 331 340 342 340 342 346 348 349 352 351 350 348 347 348 348 346 343
11 6 16 22 15 9 1 350 347 348 345 333 326 286 282 307 300 295 283 269 260 238 238 237 254 279 302 322 334 339 340 342 343 344 345 347 348 347 344 343 343 344 343 340
5 9 18 12 9 1 359 354 347 341 336 339 330 329 330 329 324 316 307 296 270 231 217 227 249 269 297 317 329 335 339 340 342 343 343 343 343 344 344 343 341 339 338 336
6 10 7 7 4 2 353 359 350 339 335 333 339 332 334 330 323 320 319 312 281 236 223 242 247 266 292 314 328 333 336 338 340 341 340 340 338 337 340 338 337 336 335 334
358 360 1 1 1 2 356 357 349 345 338 338 347 341 342 343 334 329 329 322 307 280 265 269 262 280 303 317 324 329 334 336 336 337 337 336 335 336 337 337 335 334 333 331
357 4 2 360 360 3 357 354 353 356 350 340 346 343 339 341 339 336 334 329 317 301 290 288 287 296 305 316 324 328 330 331 333 334 335 334 334 335 334 334 332 332 331 331
348 356 359 2 354 1 356 355 349 350 346 340 345 333 332 340 339 337 338 336 326 319 304 297 295 300 308 315 322 326 328 327 330 332 332 333 332 333 332 331 331 330 329 329
342 341 353 353 354 351 354 357 354 342 340 332 332 334 332 340 337 339 343 339 332 323 315 308 306 308 312 316 321 324 325 325 327 329 330 330 330 331 330 329 329 328 327 326
339 339 349 350 355 354 352 351 355 343 341 337 339 332 332 337 340 342 337 331 326 321 316 313 312 313 314 318 321 323 323 324 325 326 328 327 328 328 327 326 326 326 325 325
341 332 344 349 351 353 351 358 346 346 335 329 329 325 324 328 332 332 326 318 319 319 314 311 311 313 316 318 320 321 322 322 323 325 326 326 326 326 325 324 323 323 322 322
341 337 339 341 341 340 344 345 347 343 335 327 324 327 334 327 323 317 318 317 317 314 311 311 312 314 315 317 319 320 321 321 322 323 325 324 324 324 324 322 321 320 319 319
340 334 329 331 340 342 339 339 337 331 328 321 317 314 333 333 335 335 327 320 313 309 306 308 310 313 314 314 317 319 321 322 323 323 323 323 323 323 321 320 319 317 316 316
339 334 329 331 340 344 333 333 328 328 325 314 312 317 330 331 326 320 316 315 312 307 301 302 308 311 313 315 317 319 321 322 324 324 323 322 322 320 318 317 316 315 314 313
333 324 318 317 321 325 322 322 320 315 315 312 302 305 308 311 313 315 316 315 313 311 307 306 310 314 316 318 319 320 320 322 323 322 321 320 319 318 316 315 314 313 313 311
323 314 312 307 312 316 313 312 310 303 301 303 308 309 311 314 315 315 321 323 323 323 321 320 318 319 320 320 320 320 321 321 321 320 318 317 317 316 315 314 313 311 310 309
319 315 318 315 316 316 313 314 307 302 301 300 305 308 315 318 323 321 321 321 321 320 321 321 321 321 322 323 322 322 321 320 319 317 316 316 316 315 315 314 313 311 310 308
314 314 316 313 322 321 314 315 317 320 315 314 312 316 319 320 320 321 322 322 321 323 325 325 324 324 324 323 322 320 319 318 317 316 317 317 317 316 316 315 314 312 310 308
309 313 315 313 318 313 324 329 322 315 314 311 313 316 318 320 321 320 321 321 322 324 325 324 323 322 322 322 320 319 319 318 318 318 318 319 318 317 317 316 315 313 311 308
310 310 312 312 311 310 316 322 320 318 316 318 313 318 321 323 322 320 326 327 325 326 326 325 324 323 323 322 322 322 321 321 321 320 320 320 320 318 318 316 315 314 311 309
318 311 307 312 309 309 321 324 324 323 314 330 330 325 323 321 315 317 325 328 327 327 328 327 327 326 327 327 326 324 323 322 322 322 321 321 320 319 318 317 317 316 313 310
316 313 305 306 307 310 324 329 330 316 320 327 322 320 318 316 319 324 327 326 327 327 328 329 328 327 327 328 327 324 324 323 323 323 322 322 321 320 320 319 319 317 316 314
315 314 311 311 309 311 331 326 318 319 320 321 321 321 324 326 326 325 325 325 327 327 329 328 327 326 327 327 326 324 322 324 324 324 324 324 323 323 322 321 321 320 318 317
308 310 310 307 307 317 323 321 324 324 320 322 325 329 329 326 326 327 327 327 327 328 327 329 327 327 327 328 327 323 325 326 326 325 325 324 324 325 325 324 324 323 322 320
312 314 309 312 317 320 324 326 327 329 330 335 334 331 328 324 324 323 325 326 327 328 328 328 327 326 326 329 329 328 328 327 328 326 326 327 327 327 329 329 329 327 326 324
314 317 313 312 318 326 331 336 336 337 338 335 332 329 326 324 324 324 325 326 326 327 327 329 329 329 329 331 331 330 331 331 329 330 330 330 331 333 333 334 333 332 330 328
325 325 323 321 330 332 335 339 340 338 336 334 332 330 330 329 326 326 325 328 329 329 331 331 332 332 332 333 333 335 336 336 334 334 335 336 337 337 337 336 336 336 334 323